SQ5DCP-1 Weather Reports


Display with metric or nautical units.
time (UTC)temp
F
wind
direction
speed
MPH
gust
MPH
rain 1hr
in
rain 24hr
in
rain mn
in
humidity
%
barometer
mb
20260906203034 57 279 3.0 7.0 0.00 0.00 0.00 72 1026.7
20260906202532 57 284 2.0 4.0 0.00 0.00 0.00 72 1026.7
20260906202030 57 292 3.0 6.0 0.00 0.00 0.00 71 1026.7
20260906201528 57 283 3.0 7.0 0.00 0.00 0.00 71 1026.5
20260906201026 57 286 2.0 6.0 0.00 0.00 0.00 70 1026.6
20260906200524 58 279 3.0 6.0 0.00 0.00 0.00 70 1026.6
20260906200022 58 278 2.0 4.0 0.00 0.00 0.00 70 1026.5
20260906195520 58 283 2.0 4.0 0.00 0.00 0.00 70 1026.5
20260906195018 58 278 2.0 7.0 0.00 0.00 0.00 69 1026.5
20260906194516 58 288 2.0 3.0 0.00 0.00 0.00 69 1026.6
20260906194035 58 282 2.0 4.0 0.00 0.00 0.00 69 1026.5
20260906193533 59 284 2.0 6.0 0.00 0.00 0.00 69 1026.4
20260906193031 59 281 3.0 6.0 0.00 0.00 0.00 69 1026.5
20260906192529 59 290 3.0 7.0 0.00 0.00 0.00 69 1026.4
20260906192027 59 279 2.0 6.0 0.00 0.00 0.00 69 1026.4
20260906191525 59 284 2.0 4.0 0.00 0.00 0.00 69 1026.5
20260906191022 59 278 3.0 7.0 0.00 0.00 0.00 68 1026.4
20260906190520 59 282 2.0 7.0 0.00 0.00 0.00 68 1026.3
20260906190018 60 284 3.0 7.0 0.00 0.00 0.00 68 1026.3
20260906185516 60 280 2.0 4.0 0.00 0.00 0.00 68 1026.2
20260906185034 60 280 3.0 7.0 0.00 0.00 0.00 68 1026.2
20260906184532 60 281 4.0 7.0 0.00 0.00 0.00 68 1026.2
20260906184030 60 292 3.0 8.0 0.00 0.00 0.00 68 1026.2
20260906183528 60 288 3.0 7.0 0.00 0.00 0.00 68 1026.1
20260906183026 60 287 3.0 9.0 0.00 0.01 0.00 67 1026.0
20260906182524 60 286 3.0 8.0 0.00 0.01 0.00 67 1026.0
20260906182022 60 287 4.0 9.0 0.00 0.01 0.00 67 1025.9
20260906181520 60 287 4.0 11.0 0.00 0.01 0.00 67 1026.0
20260906181018 60 278 2.0 4.0 0.00 0.01 0.00 67 1026.0
20260906180515 60 287 3.0 8.0 0.00 0.01 0.00 67 1025.9
20260906180034 60 288 3.0 8.0 0.00 0.01 0.00 67 1025.8
20260906175532 60 283 4.0 8.0 0.00 0.01 0.00 67 1025.7
20260906175030 60 284 4.0 9.0 0.00 0.01 0.00 67 1025.7
20260906174528 60 284 3.0 8.0 0.00 0.01 0.00 66 1025.7
20260906174025 61 286 3.0 8.0 0.00 0.01 0.00 66 1025.6
20260906173524 61 281 4.0 8.0 0.00 0.01 0.00 66 1025.5
20260906173021 61 291 4.0 10.0 0.00 0.01 0.00 66 1025.5
20260906172519 61 276 3.0 8.0 0.00 0.01 0.00 66 1025.5
20260906172017 61 293 3.0 8.0 0.00 0.01 0.00 66 1025.4
20260906171535 61 291 3.0 8.0 0.00 0.01 0.00 66 1025.3
20260906171033 61 289 4.0 8.0 0.00 0.01 0.00 66 1025.3
20260906170531 61 284 4.0 10.0 0.00 0.01 0.00 66 1025.3
20260906170029 61 287 5.0 11.0 0.00 0.01 0.00 66 1025.3
20260906165527 61 286 4.0 8.0 0.00 0.01 0.00 66 1025.2
20260906165025 62 276 4.0 10.0 0.00 0.01 0.00 65 1025.1
20260906164523 62 289 6.0 11.0 0.00 0.01 0.00 65 1025.0
20260906164021 62 284 5.0 9.0 0.00 0.01 0.00 65 1025.1
20260906163519 62 284 5.0 14.0 0.00 0.01 0.00 65 1025.0
20260906163017 62 291 6.0 13.0 0.00 0.01 0.00 65 1024.9
20260906162535 62 285 5.0 10.0 0.00 0.01 0.00 65 1024.9
20260906162034 62 284 6.0 13.0 0.00 0.01 0.00 65 1024.8
20260906161531 62 292 5.0 13.0 0.00 0.01 0.00 65 1024.8
20260906161030 62 294 6.0 17.0 0.00 0.01 0.00 64 1024.7
20260906160528 62 281 6.0 11.0 0.00 0.01 0.00 64 1024.6
20260906160026 62 275 5.0 13.0 0.00 0.01 0.00 64 1024.6
20260906155524 62 296 6.0 11.0 0.00 0.01 0.00 64 1024.6
20260906155022 62 292 7.0 14.0 0.00 0.01 0.00 64 1024.5
20260906154520 62 280 8.0 17.0 0.00 0.01 0.00 64 1024.5
20260906154018 62 292 6.0 15.0 0.00 0.01 0.00 64 1024.5
20260906153516 62 303 7.0 21.0 0.00 0.01 0.00 63 1024.5
20260906153034 63 287 9.0 19.0 0.00 0.01 0.00 63 1024.5
20260906152532 63 282 8.0 17.0 0.00 0.01 0.00 63 1024.3
20260906152030 63 289 7.0 18.0 0.00 0.01 0.00 63 1024.3
20260906151528 63 285 10.0 19.0 0.00 0.01 0.00 63 1024.2
20260906151026 63 273 8.0 18.0 0.00 0.01 0.00 63 1024.2
20260906150524 63 296 7.0 14.0 0.00 0.01 0.00 64 1024.1
20260906150043 63 294 6.0 22.0 0.00 0.01 0.00 63 1024.2
20260906150022 63 313 8.0 18.0 0.00 0.01 0.00 63 1024.1
20260906145520 63 294 6.0 22.0 0.00 0.01 0.00 63 1024.2
20260906145018 63 285 7.0 17.0 0.00 0.01 0.00 63 1024.1
20260906144516 63 298 7.0 18.0 0.00 0.01 0.00 62 1024.1
20260906144034 63 288 7.0 17.0 0.00 0.01 0.00 63 1024.2
20260906143532 63 291 7.0 17.0 0.00 0.01 0.00 62 1024.0
20260906143030 63 293 10.0 17.0 0.00 0.01 0.00 63 1024.0
20260906142528 63 301 8.0 17.0 0.00 0.01 0.00 63 1023.9
20260906142027 64 294 10.0 22.0 0.00 0.01 0.00 62 1023.9
20260906141525 64 281 8.0 19.0 0.00 0.01 0.00 62 1023.8
20260906141023 64 303 8.0 16.0 0.00 0.01 0.00 62 1023.8
20260906140521 63 291 8.0 17.0 0.00 0.01 0.00 63 1023.8
20260906140020 63 292 10.0 19.0 0.00 0.01 0.00 64 1023.7
20260906135518 63 273 7.0 17.0 0.00 0.01 0.00 64 1023.7
20260906135035 63 291 9.0 17.0 0.00 0.01 0.00 64 1023.7
20260906134533 63 294 9.0 19.0 0.00 0.01 0.00 64 1023.7
20260906134031 63 284 10.0 22.0 0.00 0.01 0.00 64 1023.7
20260906133529 63 280 10.0 22.0 0.00 0.01 0.00 64 1023.7
20260906133027 63 287 9.0 16.0 0.00 0.01 0.00 65 1023.6
20260906132526 62 287 8.0 18.0 0.00 0.01 0.00 65 1023.6
20260906132024 62 294 9.0 19.0 0.00 0.01 0.00 66 1023.5
20260906131522 62 286 9.0 21.0 0.00 0.01 0.00 67 1023.5
20260906131019 61 296 8.0 18.0 0.00 0.01 0.00 67 1023.6
20260906130518 61 290 9.0 21.0 0.00 0.01 0.00 68 1023.5
20260906130036 61 293 10.0 23.0 0.00 0.01 0.00 68 1023.6
20260906125534 62 273 10.0 18.0 0.00 0.01 0.00 67 1023.4
20260906125032 62 290 8.0 18.0 0.00 0.01 0.00 66 1023.4
20260906124530 62 281 9.0 16.0 0.00 0.01 0.00 66 1023.3
20260906124027 62 296 8.0 18.0 0.00 0.01 0.00 66 1023.3
20260906123526 62 285 10.0 19.0 0.00 0.01 0.00 66 1023.3
20260906123023 62 297 10.0 21.0 0.00 0.01 0.00 66 1023.3
20260906122522 63 278 9.0 21.0 0.00 0.01 0.00 65 1023.2
20260906122020 63 277 11.0 23.0 0.00 0.01 0.00 65 1023.2
20260906121518 63 276 9.0 18.0 0.00 0.01 0.00 65 1023.1
20260906121048 62 290 10.0 21.0 0.00 0.01 0.00 66 1023.0
20260906121016 62 290 10.0 21.0 0.00 0.01 0.00 66 1023.0
20260906120534 62 294 8.0 21.0 0.00 0.01 0.00 67 1023.1
20260906120032 62 295 9.0 18.0 0.00 0.01 0.00 67 1023.0
20260906115531 62 286 11.0 25.0 0.00 0.01 0.00 65 1022.9
20260906115029 62 293 11.0 21.0 0.00 0.01 0.00 66 1022.9
20260906114526 61 290 11.0 25.0 0.00 0.01 0.00 67 1022.8
20260906114024 61 278 8.0 18.0 0.00 0.01 0.00 67 1022.8
20260906113522 61 290 9.0 22.0 0.00 0.01 0.00 67 1022.7
20260906113021 61 296 10.0 19.0 0.00 0.01 0.00 67 1022.7
20260906112519 61 300 11.0 22.0 0.00 0.01 0.00 67 1022.6
20260906112017 61 280 11.0 18.0 0.00 0.01 0.00 68 1022.5
20260906111535 60 294 10.0 18.0 0.00 0.01 0.00 69 1022.5
20260906111033 60 300 10.0 24.0 0.00 0.01 0.00 69 1022.5
20260906110531 60 304 10.0 19.0 0.00 0.01 0.00 69 1022.5
20260906110030 60 287 9.0 18.0 0.00 0.01 0.00 69 1022.6
20260906105527 60 295 10.0 22.0 0.00 0.01 0.00 70 1022.5
20260906105025 60 287 9.0 17.0 0.00 0.01 0.00 70 1022.4
20260906104524 60 280 11.0 26.0 0.00 0.01 0.00 70 1022.3
20260906104022 60 294 9.0 17.0 0.00 0.01 0.00 70 1022.1
20260906103520 60 287 9.0 22.0 0.00 0.01 0.00 71 1022.1
20260906103018 60 290 6.0 13.0 0.00 0.01 0.00 71 1022.0
20260906102516 60 294 10.0 21.0 0.00 0.01 0.00 71 1022.0
20260906102034 60 296 11.0 23.0 0.00 0.01 0.00 70 1021.9
20260906101533 59 296 9.0 21.0 0.00 0.01 0.00 72 1021.9
20260906101031 59 286 9.0 15.0 0.00 0.01 0.00 72 1021.8
20260906100529 59 278 9.0 22.0 0.00 0.01 0.00 73 1021.8
20260906100027 59 291 12.0 29.0 0.00 0.01 0.00 73 1021.8
20260906095525 58 289 9.0 16.0 0.00 0.01 0.00 73 1021.6
20260906095023 58 279 11.0 23.0 0.00 0.01 0.00 73 1021.6
20260906094521 58 295 7.0 15.0 0.00 0.01 0.00 73 1021.6
20260906094020 59 284 9.0 16.0 0.00 0.01 0.00 72 1021.4
20260906093518 59 298 8.0 22.0 0.00 0.01 0.00 72 1021.3
20260906093048 59 284 10.0 26.0 0.00 0.01 0.00 72 1021.4
20260906093016 59 284 10.0 26.0 0.00 0.01 0.00 72 1021.4
20260906092534 59 280 9.0 27.0 0.00 0.01 0.00 72 1021.3
20260906092032 58 280 10.0 21.0 0.00 0.01 0.00 72 1021.2
20260906091530 58 286 8.0 21.0 0.00 0.01 0.00 73 1021.3
20260906091028 58 275 9.0 18.0 0.00 0.01 0.00 74 1021.2
20260906090527 57 281 8.0 22.0 0.00 0.01 0.00 75 1021.2
20260906090025 57 290 7.0 16.0 0.00 0.01 0.00 76 1021.2
20260906085523 57 293 7.0 17.0 0.00 0.01 0.00 76 1021.2
20260906085021 57 286 9.0 25.0 0.00 0.01 0.00 75 1021.2
20260906084519 57 291 6.0 13.0 0.00 0.01 0.00 74 1021.2
20260906084017 57 275 8.0 18.0 0.00 0.01 0.00 73 1021.1
20260906083535 57 278 7.0 19.0 0.00 0.01 0.00 73 1021.0
20260906083033 57 285 9.0 22.0 0.00 0.01 0.00 73 1020.9
20260906082531 57 304 7.0 18.0 0.00 0.01 0.00 73 1020.8
20260906082029 57 290 8.0 16.0 0.00 0.01 0.00 74 1020.7
20260906081527 57 287 8.0 17.0 0.00 0.01 0.00 74 1020.7
20260906081025 57 285 6.0 17.0 0.00 0.01 0.00 75 1020.8
20260906080523 56 283 5.0 14.0 0.00 0.01 0.00 75 1020.8
20260906080053 56 282 8.0 15.0 0.00 0.01 0.00 75 1020.7
20260906080021 56 282 8.0 15.0 0.00 0.01 0.00 75 1020.7
20260906075519 56 289 6.0 15.0 0.00 0.01 0.00 75 1020.7
20260906075017 56 280 7.0 14.0 0.00 0.01 0.00 75 1020.6
20260906074535 56 292 7.0 16.0 0.00 0.01 0.00 75 1020.6
20260906074033 56 293 7.0 13.0 0.00 0.01 0.00 75 1020.4
20260906073531 56 280 9.0 18.0 0.00 0.01 0.00 74 1020.5
20260906073029 56 284 6.0 11.0 0.00 0.01 0.00 74 1020.4
20260906072527 57 267 11.0 26.0 0.00 0.01 0.00 73 1020.3
20260906072025 57 271 6.0 17.0 0.00 0.01 0.00 73 1020.3
20260906071523 57 293 6.0 11.0 0.00 0.01 0.00 73 1020.1
20260906071021 57 294 7.0 21.0 0.00 0.01 0.00 73 1020.2
20260906070519 57 288 9.0 22.0 0.00 0.01 0.00 73 1020.1
20260906070017 56 284 7.0 18.0 0.00 0.01 0.00 74 1020.0
20260906065535 56 279 7.0 15.0 0.00 0.01 0.00 74 1020.0
20260906065034 56 289 7.0 13.0 0.00 0.01 0.00 74 1019.9
20260906064531 56 299 7.0 15.0 0.00 0.01 0.00 74 1019.8
20260906064030 56 283 8.0 16.0 0.00 0.01 0.00 74 1019.8
20260906063528 56 290 9.0 18.0 0.00 0.01 0.00 74 1019.7
20260906063026 56 283 8.0 17.0 0.00 0.01 0.00 74 1019.6
20260906062524 56 282 8.0 15.0 0.00 0.01 0.00 74 1019.7
20260906062022 56 297 7.0 16.0 0.00 0.01 0.00 74 1019.7
20260906061520 56 276 10.0 17.0 0.00 0.01 0.00 74 1019.6
20260906061018 56 284 6.0 14.0 0.00 0.01 0.00 74 1019.6
20260906060516 56 280 9.0 21.0 0.00 0.01 0.00 74 1019.5
20260906060035 56 281 9.0 26.0 0.00 0.01 0.00 74 1019.4
20260906055533 56 277 8.0 21.0 0.00 0.01 0.00 75 1019.3
20260906055031 56 292 7.0 15.0 0.00 0.01 0.00 76 1019.3
20260906054529 56 294 7.0 21.0 0.00 0.01 0.00 76 1019.2
20260906054027 56 280 7.0 14.0 0.00 0.01 0.00 77 1019.2
20260906053525 56 275 8.0 18.0 0.00 0.01 0.00 77 1019.2
20260906053023 56 280 6.0 13.0 0.00 0.01 0.00 77 1019.2
20260906052522 56 287 7.0 18.0 0.00 0.01 0.00 78 1019.1
20260906052019 56 287 7.0 16.0 0.00 0.01 0.00 78 1019.1
20260906051518 56 292 8.0 16.0 0.00 0.01 0.00 78 1019.0
20260906051049 56 294 7.0 15.0 0.00 0.01 0.00 78 1019.1
20260906051015 56 294 7.0 15.0 0.00 0.01 0.00 78 1019.1
20260906050534 56 283 7.0 19.0 0.00 0.01 0.00 78 1018.9
20260906050032 56 279 6.0 14.0 0.00 0.01 0.00 78 1018.9
20260906045530 56 283 7.0 14.0 0.00 0.01 0.00 78 1018.9
20260906045028 56 281 7.0 16.0 0.00 0.01 0.00 78 1018.9
20260906044526 56 275 6.0 13.0 0.00 0.01 0.00 78 1018.8
20260906044024 56 279 8.0 14.0 0.00 0.01 0.00 78 1018.8
20260906043523 56 281 7.0 15.0 0.00 0.01 0.00 78 1018.8
20260906043415 56 281 8.0 21.0 0.00 0.01 0.00 78 1018.6
20260906043021 56 281 8.0 21.0 0.00 0.01 0.00 78 1018.6
20260906042518 56 284 8.0 19.0 0.00 0.01 0.00 79 1018.6
20260906042017 56 285 8.0 16.0 0.00 0.01 0.00 79 1018.5
20260906041535 56 274 8.0 23.0 0.00 0.01 0.00 79 1018.5
20260906041033 56 287 6.0 18.0 0.00 0.01 0.00 78 1018.4
20260906040531 56 291 8.0 17.0 0.00 0.01 0.00 79 1018.4
20260906040029 56 290 8.0 16.0 0.00 0.01 0.00 79 1018.2
20260906035527 56 289 7.0 14.0 0.00 0.01 0.00 79 1018.2
20260906035025 56 276 6.0 14.0 0.00 0.01 0.00 79 1018.2
20260906034523 56 270 7.0 13.0 0.00 0.01 0.00 79 1018.2
20260906034021 56 282 6.0 16.0 0.00 0.01 0.00 78 1018.2
20260906033519 56 277 7.0 13.0 0.00 0.01 0.00 78 1018.1
20260906033018 56 290 9.0 23.0 0.00 0.01 0.00 78 1018.0
20260906032516 56 293 5.0 11.0 0.00 0.01 0.00 79 1018.0
20260906032034 56 281 7.0 15.0 0.00 0.01 0.00 79 1018.0
20260906031532 56 286 7.0 16.0 0.00 0.01 0.00 79 1017.9
20260906031030 56 288 6.0 14.0 0.00 0.01 0.00 79 1017.9
20260906030528 56 280 6.0 17.0 0.00 0.01 0.00 79 1017.9
20260906030026 56 283 5.0 11.0 0.00 0.01 0.00 80 1017.8
20260906025524 56 280 7.0 11.0 0.00 0.01 0.00 80 1018.0
20260906025022 56 291 7.0 19.0 0.00 0.01 0.00 80 1017.8
20260906024520 56 287 7.0 18.0 0.00 0.01 0.00 80 1017.8
20260906024018 56 282 8.0 15.0 0.00 0.01 0.00 80 1017.7
20260906023517 56 287 6.0 15.0 0.00 0.02 0.00 80 1017.8
20260906023035 56 285 5.0 11.0 0.00 0.02 0.00 80 1017.8
20260906022533 56 278 6.0 15.0 0.00 0.02 0.00 80 1017.7
20260906022031 56 285 5.0 11.0 0.00 0.02 0.00 80 1017.7
20260906021529 56 288 6.0 13.0 0.00 0.02 0.00 80 1017.7
20260906021028 56 290 6.0 15.0 0.00 0.02 0.00 80 1017.7
20260906020526 56 270 7.0 18.0 0.00 0.02 0.00 80 1017.7
20260906020024 56 285 6.0 11.0 0.00 0.02 0.00 80 1017.7
20260906015522 56 288 6.0 13.0 0.00 0.02 0.00 80 1017.6
20260906015020 56 287 6.0 11.0 0.00 0.02 0.00 80 1017.7
20260906014519 56 282 6.0 16.0 0.00 0.02 0.00 80 1017.5
20260906014016 56 280 8.0 17.0 0.00 0.02 0.00 80 1017.6
20260906013534 56 290 7.0 15.0 0.00 0.02 0.00 80 1017.6
20260906013033 56 282 6.0 16.0 0.00 0.02 0.00 80 1017.5
20260906012531 56 285 9.0 17.0 0.00 0.02 0.00 80 1017.5
20260906012029 56 287 7.0 15.0 0.00 0.02 0.00 80 1017.6
20260906011527 56 271 8.0 15.0 0.00 0.02 0.00 80 1017.6
20260906011025 56 285 5.0 11.0 0.00 0.02 0.00 80 1017.5
20260906010524 56 271 7.0 13.0 0.00 0.02 0.00 80 1017.5
20260906010022 56 288 7.0 18.0 0.00 0.02 0.00 80 1017.5
20260906005520 56 273 7.0 14.0 0.00 0.02 0.00 80 1017.5
20260906005018 56 294 7.0 15.0 0.00 0.02 0.00 80 1017.5
20260906004516 56 281 7.0 15.0 0.00 0.03 0.00 80 1017.6
20260906004034 56 291 8.0 23.0 0.00 0.03 0.00 80 1017.4
20260906003532 56 288 6.0 10.0 0.00 0.03 0.00 81 1017.4
20260906003031 56 284 5.0 11.0 0.00 0.03 0.00 80 1017.4
20260906002529 56 289 6.0 13.0 0.00 0.03 0.00 80 1017.5
20260906002027 56 286 7.0 17.0 0.00 0.03 0.00 80 1017.3
20260906001525 56 291 6.0 11.0 0.00 0.03 0.00 80 1017.4
20260906001023 56 278 5.0 10.0 0.00 0.03 0.00 80 1017.3
20260906000521 56 298 6.0 14.0 0.00 0.04 0.00 80 1017.2
20260906000019 56 290 6.0 14.0 0.00 0.04 0.00 80 1017.3
20260905235518 56 296 7.0 16.0 0.00 0.05 0.00 79 1017.4
20260905235015 56 301 7.0 15.0 0.00 0.05 0.00 80 1017.3
20260905234534 56 281 6.0 13.0 0.00 0.05 0.00 80 1017.2
20260905234032 56 281 6.0 13.0 0.00 0.05 0.00 80 1017.2
20260905233530 56 299 6.0 14.0 0.00 0.05 0.00 80 1017.2
20260905233028 56 283 5.0 17.0 0.00 0.05 0.00 80 1017.3
20260905232526 56 283 7.0 14.0 0.00 0.05 0.00 80 1017.3
20260905232025 56 287 6.0 16.0 0.00 0.05 0.00 80 1017.2
20260905231523 56 285 7.0 15.0 0.00 0.05 0.00 79 1017.2
20260905231021 56 286 6.0 14.0 0.00 0.05 0.00 79 1017.1
20260905230519 56 275 6.0 15.0 0.00 0.05 0.00 79 1017.1
20260905230049 56 280 7.0 17.0 0.00 0.05 0.00 79 1017.1
20260905230017 56 280 7.0 17.0 0.00 0.05 0.00 79 1017.1
20260905225535 56 290 7.0 15.0 0.00 0.05 0.00 79 1017.0
20260905225034 56 281 7.0 13.0 0.00 0.05 0.00 79 1017.1
20260905224532 56 282 6.0 11.0 0.00 0.05 0.00 79 1017.2
20260905224030 56 281 6.0 11.0 0.00 0.05 0.00 79 1017.2
20260905223528 56 279 6.0 13.0 0.00 0.05 0.00 79 1017.1
20260905223026 57 278 7.0 16.0 0.00 0.05 0.00 79 1017.0
20260905222524 57 283 7.0 16.0 0.00 0.05 0.00 78 1017.2
20260905222022 57 290 6.0 15.0 0.00 0.05 0.00 78 1017.2
20260905221520 57 289 6.0 14.0 0.00 0.05 0.00 77 1017.1
20260905221019 57 282 5.0 15.0 0.00 0.05 0.00 77 1017.1
20260905220517 57 286 5.0 10.0 0.00 0.05 0.00 77 1017.0
20260905220035 57 285 5.0 13.0 0.00 0.05 0.05 77 1017.0
20260905215533 57 288 6.0 15.0 0.00 0.05 0.05 76 1017.0
20260905215032 57 274 7.0 18.0 0.00 0.05 0.05 76 1016.9
20260905214529 57 284 6.0 16.0 0.00 0.05 0.05 76 1016.9
20260905214027 57 286 6.0 13.0 0.00 0.05 0.05 76 1017.0
20260905213526 58 295 7.0 11.0 0.00 0.05 0.05 76 1016.8
20260905213024 58 287 6.0 14.0 0.00 0.05 0.05 76 1016.7
20260905212522 58 285 5.0 13.0 0.00 0.05 0.05 76 1016.6
20260905212020 58 278 6.0 14.0 0.00 0.05 0.05 76 1016.7
20260905211518 58 278 7.0 15.0 0.00 0.05 0.05 76 1016.7
20260905211016 58 282 8.0 15.0 0.00 0.07 0.05 76 1016.6
20260905210534 58 284 7.0 13.0 0.00 0.08 0.05 75 1016.6
20260905210032 58 282 8.0 15.0 0.00 0.08 0.05 75 1016.5
20260905205531 58 280 8.0 15.0 0.00 0.08 0.05 74 1016.6
20260905205029 58 284 8.0 16.0 0.00 0.08 0.05 74 1016.6
20260905204527 58 279 8.0 17.0 0.00 0.08 0.05 74 1016.6
20260905204025 58 282 10.0 26.0 0.00 0.08 0.05 74 1016.6
20260905203523 58 279 9.0 22.0 0.00 0.09 0.05 75 1016.6